Location: Cortos
(40.7190°N, 4.5893°W)
Time: 19:47:03
(UTC+00:00)

Cosmos 2341 Rocket - Pass Details

Date: 05 July 2020
Orbit: 968 x 1004 km, 82.9° (Epoch: 05 August)

Event Time Altitude Azimuth Distance (km) Brightness Sun altitude
Exits shadow 23:11:49 52° 138° (SE) 1,192 4.1 -24.5°
Maximum altitude 23:12:59 62° 93° (E) 1,090 4.1 -24.6°
Drops below altitude 10° 23:19:06 10° 14° (NNE) 2,721 7.1 -24.9°
Sets 23:21:38 0° 11° (NNE) 3,670 8.0 -25.0°
